Regional Weather Roundup
Issued by NWS Charleston, SC

Current Version | Previous Version | Text Only | Print | Product List | Glossary Off
Versions: 1 2 3 4 5 6 7 8 9 10 11 12 13 14 15 16 17 18 19 20 21 22 23 24 25 26 27 28 29 30 31 32 33 34 35 36 37 38 39 40 41 42 43 44 45 46 47 48 49 50

000
ASUS42 KCHS 220712
RWRCHS

Regional Weather Roundup
National Weather Service Charleston SC
200 AM EST MON JAN 22 2018

NOTE: "fair" indicates few or no clouds below 12,000 feet with no
significant weather and/or obstructions to visibility.

Not all stations are quality controlled. Use data with caution,
especially dewpoint observations.

SCZ027-030-031-034>040-042>050-220800-
...Southeast South Carolina...

CITY           SKY/WX    TMP DP  RH WIND       PRES   REMARKS
N Charleston   FAIR      43  41  93 CALM      30.20F
Waterfront Prk NOT AVBL
Mount Pleasant FAIR      39  37  93 CALM      30.21S
Johns Island   FAIR      41  39  93 CALM      30.20F
Pinopolis        N/A     45  43  93 CALM      30.14S
Moncks Corner  FAIR      37  36  93 CALM      30.20F
Summerville    FAIR      39  37  93 CALM      30.21F
Beaufort MCAS  FAIR      41  41 100 CALM      30.19F
Beaufort Arpt  FAIR      43  41  93 NE3       30.19S FOG
Hilton Head Is FAIR      45  41  87 CALM      30.20S
Walterboro     FAIR      37  37 100 CALM      30.21S
Allendale      FAIR      43  39  87 CALM      30.19F

...Southern Midlands and Pee Dee...

CITY           SKY/WX    TMP DP  RH WIND       PRES   REMARKS
Georgetown     FAIR      34  34 100 CALM      30.23R
Kingstree      FAIR      36  36 100 CALM      30.22S
Orangeburg     FAIR      40  38  93 CALM      30.20F
Barnwell       NOT AVBL
Aiken          FAIR      37  37 100 CALM      30.23S
Manning        FAIR      37  21  52 MISG      30.21F
Columbia       FAIR      41  39  93 CALM      30.19F
Sumter         FAIR      38  35  89 CALM      30.17F
Florence       FAIR      41  38  89 CALM      30.23R
Myrtle Beach   NOT AVBL
N Myrtle Beach FAIR      38  37  97 CALM      30.21F

$$

GAZ063-065-086>088-099>101-113>116-118-119-134>141-150-220800-
...Southeast Georgia...

CITY           SKY/WX    TMP DP  RH WIND       PRES   REMARKS
Savannah Arpt  FAIR      42  40  92 N3        30.19F
Hunter AAF     FAIR      44  40  86 CALM      30.16F
Fort Stewart   FAIR      42  38  86 CALM      30.16F
Statesboro     FAIR      42  42  99 CALM      30.19S
Sylvania       FAIR      45  41  86 CALM      30.19S
Claxton        FAIR      41  40  95 CALM      30.19S

...CSRA, Central and far Southeast Georgia...

CITY           SKY/WX    TMP DP  RH WIND       PRES   REMARKS
Thomson        FAIR      41  39  93 CALM      30.23F
Augusta-Bush   FAIR      39  37  92 CALM      30.19S
Augusta-Daniel FAIR      51  42  71 E3        30.19S
Swainsboro     FAIR      46  43  87 CALM      30.19S HAZE
Vidalia        FAIR      46  41  81 CALM      30.17F
Eastman        FAIR      42  35  77 CALM      30.19F
Hazlehurst     FAIR      52  28  40 S3        30.17S
Alma           FAIR      44  38  79 CALM      30.17F
Waycross       FAIR      44  37  76 CALM      30.17S
Jesup          FAIR      45  37  76 CALM      30.18
Baxley         FAIR      45  36  70 CALM      30.17S
Brunswick      FAIR      43  37  81 CALM      30.18F
Saint Simons   FAIR      54  53  97 CALM      30.16F

$$

SCZ027-028-034-036>038-045-046-048>050-GAZ119-141-220800-
...Lake and Supplemental Coastal Observations...

STATION/POSITION TIME  TEMP    WIND        PRES    WAVE   SWELL
                       AIR SEA DIR/SP/G            HT/PER HT/PER/DIR
                 (UTC) (F)     (DEG/KT/KT) (MB)    (FT/S) (FT/S/D)
Winyah Bay       NOT AVBL
Lake Murray      0620   48      CALM  /  2 1021.7F
ACE Basin NERRS  0545   40        CALM     1023.0
Fort Pulaski     0642      46  330/  1/  1 1022.3F
Sapelo Island    0600   47      70/  2     1022.0

$$

ANZ835-935-AMZ111-154-330-350-352-354-370-450-454-472-220800-
...C-MAN and Buoy Observations...

STATION/POSITION TIME  TEMP    WIND        PRES    WAVE   SWELL
                       AIR SEA DIR/SP/G            HT/PER HT/PER/DIR
                 (UTC) (F)     (DEG/KT/KT) (MB)    (FT/S) (FT/S/D)
Buoy 41004       0650   66 70  190/ 10/ 12 1022.3F   1/11   2/130/11
Buoy 41008       0650   56 51   60/  4/  6 1021.5F   1/11   2/110/11
Folly Beach CMAN 0600   48     340/  3/  3 1023.2F
Capers Nearshore 0608   46 51   50/  4/  6 1022.5F
Fripp Nearshore  0608   45 48   30/  2/  4 1021.8F


STATION/POSITION TIME  TEMP    WIND        PRES    WAVE   SWELL
                       AIR SEA DIR/SP/G            HT/PER HT/PER/DIR
                 (UTC) (F)     (DEG/KT/KT) (MB)    (FT/S) (FT/S/D)
5E St. Marys GA  0630      49                N/A     1/11   2/120/11
Frying Pan Buoy  0650   60 65  340/  4/  6 1022.9F   1/11   2/130/11
Buoy 41025       0650   61 72  270/  4/  6 1023.7R   2/10   2/110/10
Cape Lookout NC  0600           CALM  /  1 1023.7S
Buoy 41002       0650   65 70  100/  4/  6 1023.2F   2/10   2/110/10
Buoy 41010       NOT AVBL
St Augustine FL  0700   58 53  340/  1/  2 1021.1F


$$



USA.gov is the U.S. government's official web portal to all federal, state and local government web resources and services.